[[[{"header":{"parameterUnit":"kt","parameterCategory":2,"dx":1,"dy":1,"la1":30.253999710083008,"la2":30.299108505249023,"lo1":-89.0895004272461,"lo2":-89.04439544677734,"nx":28,"ny":28,"refTime":"2022-10-24T21:00:00:Z","depth":0,"parameterNumber":1,"parameterNumberName":"U-component_of_WINDS"},"data":[-0.2584,-0.2676,-0.2728,-0.2859,-0.2928,-0.3028,-0.3081,-0.3155,-0.3229,-0.3357,-0.3441,-0.3506,-0.3603,-0.3719,-0.3815,-0.3843,-0.388,-0.3874,-0.3908,-0.388,-0.388,-0.388,-0.386,-0.3882,-0.3882,-0.3929,-0.393,-0.393,-0.2561,-0.2629,-0.2713,-0.2829,-0.2903,-0.2939,-0.3037,-0.3096,-0.3186,-0.3277,-0.3362,-0.3481,-0.3582,-0.3684,-0.3792,-0.3841,-0.3865,-0.3866,-0.3863,-0.3878,-0.3851,-0.3829,-0.3844,-0.3844,-0.3844,-0.3844,-0.3844,-0.3844,-0.2533,-0.2586,-0.2686,-0.2778,-0.2852,-0.293,-0.2992,-0.3068,-0.3154,-0.3269,-0.3317,-0.3421,-0.3525,-0.3682,-0.3748,-0.3833,-0.3843,-0.3861,-0.3866,-0.3869,-0.3866,-0.3791,-0.3855,-0.3855,-0.3855,-0.3855,-0.3855,0,-0.2529,-0.2568,-0.2652,-0.2751,-0.2821,-0.2904,-0.299,-0.303,-0.3135,-0.3201,-0.3302,-0.337,-0.3506,-0.361,-0.3723,-0.379,-0.3837,-0.3848,-0.3861,-0.3839,-0.3804,-0.3824,-0.3776,-0.3846,-0.3846,-0.3846,-0.3846,-0.3846,-0.2505,-0.2561,-0.2691,-0.2743,-0.2802,-0.2885,-0.2946,-0.3034,-0.3095,-0.3216,-0.3261,-0.3365,-0.3452,-0.3609,-0.3702,-0.3805,-0.3829,-0.3849,-0.3844,-0.3821,-0.383,-0.3825,-0.3833,-0.3848,-0.3848,-0.3847,-0.3847,0,-0.2487,-0.2571,-0.2674,-0.2799,-0.2832,-0.2887,-0.2995,-0.3054,-0.3122,-0.3213,-0.324,-0.3349,-0.3448,-0.3538,-0.3671,-0.3715,-0.3814,-0.3834,-0.3778,-0.3787,-0.3815,-0.3811,-0.3889,-0.3905,-0.3883,-0.3883,-0.3883,0,-0.25,-0.257,-0.2692,-0.2747,-0.2829,-0.2915,-0.2995,-0.3061,-0.315,-0.3222,-0.3289,-0.3356,-0.346,-0.3542,-0.3607,-0.3703,-0.3728,-0.3768,-0.3785,-0.3762,-0.3757,-0.3797,-0.3795,-0.3819,-0.3819,-0.3818,-0.3818,0,-0.2463,-0.261,-0.27,-0.2748,-0.2887,-0.2929,-0.299,-0.3089,-0.3149,-0.3241,-0.3281,-0.3383,-0.3439,-0.3518,-0.36,-0.3594,-0.372,-0.3728,-0.3761,-0.3759,-0.3784,-0.3781,-0.3828,-0.3817,-0.3817,-0.3817,-0.3817,0,-0.2486,-0.2573,-0.2691,-0.2809,-0.2845,-0.2905,-0.3009,-0.3081,-0.3182,-0.3226,-0.33,-0.3354,-0.3444,-0.3446,-0.3573,-0.3541,-0.3594,-0.364,-0.3644,-0.3657,-0.3656,-0.3671,-0.3706,-0.3713,-0.3671,-0.367,-0.3669,0,-0.2421,-0.2562,-0.2635,-0.2746,-0.2824,-0.2891,-0.2961,-0.3047,-0.3111,-0.3189,-0.3262,-0.335,-0.337,-0.341,-0.3461,-0.354,-0.3582,-0.3537,-0.3652,-0.3655,-0.3622,-0.3656,-0.3638,-0.3688,-0.3654,-0.3656,-0.3657,0,-0.238,-0.2546,-0.256,-0.2618,-0.2743,-0.2808,-0.2888,-0.2993,-0.304,-0.313,-0.32,-0.3326,-0.3347,-0.3412,-0.3467,-0.3516,-0.3556,-0.3532,-0.3536,-0.3533,-0.3654,-0.3637,-0.3645,-0.3584,-0.3585,-0.3587,-0.3645,0,-0.2397,-0.2478,-0.252,-0.2643,-0.2707,-0.2781,-0.2872,-0.2929,-0.2974,-0.304,-0.3145,-0.3239,-0.3348,-0.338,-0.3425,-0.3506,-0.3507,-0.3528,-0.3536,-0.3557,-0.3578,-0.3587,-0.3496,-0.3497,-0.3497,-0.3498,0,0,-0.2314,-0.2431,-0.2508,-0.2586,-0.2644,-0.2712,-0.2784,-0.285,-0.298,-0.3021,-0.3026,-0.3216,-0.3293,-0.3411,-0.3425,-0.3468,-0.3492,-0.348,-0.3546,-0.3551,-0.3556,-0.3577,-0.3585,-0.3499,-0.3499,-0.3499,-0.35,0,-0.2338,-0.2409,-0.2477,-0.2548,-0.2655,-0.272,-0.2736,-0.2855,-0.29,-0.3002,-0.3058,-0.3133,-0.3281,-0.3356,-0.3413,-0.3469,-0.3508,-0.3495,-0.3494,-0.3549,-0.3553,-0.3557,-0.3578,-0.3585,-0.3501,-0.3501,-0.3501,0,-0.2315,-0.24,-0.2442,-0.2576,-0.2647,-0.2725,-0.2755,-0.2836,-0.2896,-0.2967,-0.3067,-0.3132,-0.3239,-0.3337,-0.3385,-0.3391,-0.3516,-0.3493,-0.3491,-0.3499,-0.3557,-0.3561,-0.3566,-0.351,-0.351,-0.351,0,0,-0.2324,-0.2398,-0.2517,-0.2588,-0.2629,-0.2726,-0.2776,-0.2826,-0.2918,-0.2954,-0.3038,-0.3127,-0.3216,-0.3271,-0.3359,-0.3454,-0.3484,-0.349,-0.349,-0.3489,-0.3495,-0.3553,-0.3558,-0.3508,-0.3508,-0.3508,0,0,-0.2329,-0.2468,-0.2496,-0.2589,-0.2673,-0.2797,-0.2838,-0.2876,-0.2963,-0.2965,-0.3055,-0.3083,-0.3177,-0.3238,-0.3209,-0.3363,-0.3369,-0.3378,-0.3319,-0.332,-0.332,-0.3303,-0.3254,0,0,0,0,0,-0.2399,-0.2451,-0.2475,-0.2503,-0.2674,-0.2783,-0.2806,-0.2879,-0.2882,-0.2913,-0.299,-0.3027,-0.3242,-0.3218,-0.3247,-0.3278,-0.3491,-0.3494,-0.3497,-0.3444,-0.3443,-0.3443,0,0,0,0,0,0,-0.2411,-0.2445,-0.2474,-0.2597,-0.2636,-0.2782,-0.2803,-0.2824,-0.2881,-0.2886,-0.3011,-0.3031,-0.3098,-0.3208,-0.3233,-0.3261,-0.3246,-0.3492,-0.3494,-0.3497,-0.3444,-0.3443,-0.3443,0,0,0,0,0,-0.242,-0.2449,-0.2701,-0.2597,-0.2631,-0.2742,-0.2801,-0.282,-0.2865,-0.2982,-0.3003,-0.2915,-0.3096,-0.3123,-0.3224,-0.3248,-0.3229,-0.3238,-0.3494,-0.3496,-0.3498,-0.3443,0,0,0,0,0,0,-0.2428,-0.2467,-0.271,-0.2723,-0.2582,-0.2735,-0.2762,-0.2815,-0.2959,-0.298,-0.289,-0.2893,-0.3096,-0.3117,-0.3136,-0.3239,-0.3216,-0.3225,-0.3231,-0.3495,-0.3497,-0.3498,0,0,0,0,0,0,-0.2453,-0.2478,-0.2717,-0.2693,-0.2705,-0.2729,-0.2752,-0.2849,-0.2959,-0.2859,-0.2865,-0.2889,-0.3067,-0.3113,-0.3128,-0.3276,-0.3205,-0.3214,-0.322,-0.3224,-0.3496,-0.3498,0,0,0,0,0,0,-0.2465,-0.2487,-0.2691,-0.2699,-0.2709,-0.2863,-0.2816,-0.2987,-0.2936,-0.2852,-0.2934,-0.2933,-0.3063,-0.308,-0.3122,-0.3263,-0.3273,-0.3206,-0.3212,-0.3216,-0.3219,0,0,0,0,0,0,0,-0.2475,-0.231,-0.2631,-0.2704,-0.2713,-0.2845,-0.2849,-0.2853,-0.2936,-0.2935,-0.2934,-0.2934,-0.3155,-0.3165,-0.3175,-0.3253,0,0,-0.3205,-0.3209,0,0,0,0,0,0,0,0,-0.2303,-0.2309,-0.2631,-0.2634,-0.2637,-0.2846,-0.2849,-0.2852,-0.2936,-0.2935,-0.2935,-0.2934,-0.3158,-0.3166,-0.3174,0,0,0,0,0,0,0,0,0,0,0,0,0,0,0,-0.2632,-0.2634,0,-0.2846,-0.2849,-0.2851,-0.2936,-0.2935,-0.2935,-0.2934,-0.316,-0.3167,-0.3173,0,0,0,0,0,0,0,0,0,0,0,0,0,0,0,0,0,0,0,0,0,0,0,0,0,0,0,0,0,0,0,0,0,0,0,0,0,0,0,0,0,0,0,0,0,0,0,0,0,0,0,0,0,0,0,0,0,0,0,0,0,0,0,0,0,0,0,0,0]}],[{"header":{"parameterUnit":"kt","parameterCategory":2,"dx":1,"dy":1,"la1":30.253999710083008,"la2":30.299108505249023,"lo1":-89.0895004272461,"lo2":-89.04439544677734,"nx":28,"ny":28,"refTime":"2022-10-24T21:00:00:Z","depth":0,"parameterNumber":2,"parameterNumberName":"V-component_of_WINDS"},"data":[13.3954,13.4022,13.402,13.4096,13.4106,13.4157,13.4173,13.4194,13.421,13.4268,13.43,13.4302,13.4314,13.435,13.4384,13.4383,13.4399,13.4425,13.442,13.4306,13.429,13.4275,13.4261,13.4428,13.4428,13.454,13.4541,13.4542,13.3871,13.3883,13.3922,13.3959,13.3992,13.3965,13.399,13.4019,13.4064,13.4083,13.4115,13.4165,13.4202,13.4205,13.4241,13.427,13.4259,13.428,13.4279,13.4282,13.4159,13.4144,13.4289,13.4289,13.4289,13.4289,13.4289,13.4289,13.372,13.3761,13.3782,13.3824,13.3841,13.3865,13.3902,13.3905,13.3942,13.398,13.3967,13.4017,13.4034,13.4074,13.4085,13.4123,13.4099,13.412,13.4126,13.4132,13.4141,13.3983,13.4128,13.4127,13.4127,13.4127,13.4126,0,13.3609,13.3605,13.3642,13.3679,13.371,13.3737,13.3761,13.3784,13.377,13.38,13.3844,13.3868,13.3914,13.3954,13.3985,13.3992,13.3967,13.3962,13.3978,13.3987,13.3991,13.3992,13.3794,13.3959,13.3957,13.3956,13.3955,13.3955,13.3459,13.3506,13.3526,13.3553,13.3565,13.3607,13.3632,13.3616,13.3642,13.3668,13.3703,13.3742,13.3773,13.3841,13.3841,13.3875,13.3863,13.3926,13.3868,13.3874,13.3867,13.3865,13.387,13.3939,13.3941,13.3943,13.3944,0,13.3375,13.3371,13.3442,13.3456,13.3461,13.3511,13.3522,13.356,13.3558,13.361,13.3621,13.3617,13.3658,13.3648,13.3692,13.3686,13.3765,13.3751,13.376,13.3757,13.3815,13.3811,13.3999,13.4024,13.3848,13.3849,13.3851,0,13.3246,13.3308,13.3298,13.3339,13.3407,13.339,13.3457,13.3461,13.3476,13.3517,13.3487,13.3525,13.3506,13.3542,13.3532,13.3595,13.3602,13.3601,13.3599,13.3606,13.3606,13.362,13.3613,13.3587,13.3586,13.3585,13.3584,0,13.3118,13.3183,13.325,13.3264,13.3285,13.3317,13.3326,13.3343,13.3366,13.3394,13.3409,13.3441,13.346,13.3485,13.3472,13.3433,13.3547,13.3491,13.3547,13.3548,13.3575,13.3574,13.3742,13.3583,13.3583,13.3583,13.3582,0,13.3014,13.3045,13.3142,13.316,13.3177,13.322,13.3253,13.3288,13.3307,13.3304,13.3326,13.3304,13.3357,13.3302,13.3374,13.3327,13.3346,13.335,13.3353,13.336,13.3299,13.3398,13.3557,13.3575,13.3362,13.3361,13.3359,0,13.2869,13.2966,13.2953,13.3045,13.3089,13.3054,13.3101,13.3119,13.3119,13.3155,13.3154,13.3194,13.3151,13.3162,13.3198,13.3199,13.326,13.319,13.3241,13.3243,13.3241,13.3386,13.3414,13.3523,13.3335,13.3338,13.334,0,13.2756,13.2783,13.28,13.2816,13.2839,13.2874,13.2928,13.2965,13.299,13.3012,13.3058,13.3111,13.3082,13.31,13.3086,13.3125,13.3218,13.3087,13.3087,13.3113,13.3322,13.3348,13.3367,13.32,13.3203,13.3205,13.3321,0,13.2605,13.2652,13.2698,13.2734,13.2759,13.2816,13.2808,13.2835,13.282,13.282,13.2884,13.2894,13.293,13.2947,13.2932,13.3024,13.3007,13.2974,13.2922,13.3016,13.3055,13.307,13.2866,13.2864,13.2863,13.2862,0,0,13.2468,13.2536,13.2521,13.2574,13.2595,13.2558,13.2619,13.2634,13.2667,13.2682,13.2652,13.2731,13.2741,13.282,13.2848,13.2862,13.2878,13.2845,13.2971,13.2983,13.2994,13.3035,13.3051,13.2859,13.2859,13.2858,13.2858,0,13.2412,13.2426,13.2488,13.2504,13.2527,13.2524,13.2538,13.2554,13.2557,13.2619,13.2587,13.2624,13.2687,13.2702,13.2719,13.2835,13.2808,13.2846,13.2913,13.2957,13.2971,13.2984,13.3027,13.3042,13.2855,13.2855,13.2855,0,13.2302,13.2315,13.2344,13.239,13.2405,13.2449,13.2393,13.2442,13.2474,13.2429,13.2492,13.2497,13.2516,13.2591,13.2624,13.2598,13.2746,13.2696,13.2705,13.2709,13.2751,13.2768,13.2783,13.2586,13.2585,13.2584,0,0,13.2254,13.2298,13.2307,13.2378,13.2389,13.2385,13.2407,13.2395,13.2415,13.2423,13.2429,13.2447,13.2484,13.2508,13.2541,13.2624,13.2627,13.2664,13.2676,13.2687,13.2696,13.2742,13.2759,13.2581,13.258,13.258,0,0,13.2231,13.2246,13.2228,13.2309,13.2329,13.2341,13.2384,13.2362,13.2392,13.2384,13.2364,13.2368,13.2437,13.2443,13.2399,13.2522,13.247,13.248,13.2517,13.2533,13.2545,13.2543,13.2342,0,0,0,0,0,13.2171,13.2244,13.2228,13.224,13.2298,13.2351,13.2358,13.2344,13.2308,13.2342,13.2343,13.2313,13.2415,13.2376,13.2388,13.2437,13.2538,13.2545,13.2552,13.2619,13.2636,13.265,0,0,0,0,0,0,13.2176,13.2191,13.2226,13.2241,13.2254,13.2348,13.2284,13.2282,13.2304,13.2298,13.2314,13.2314,13.2301,13.2369,13.238,13.2427,13.2338,13.2541,13.2547,13.2553,13.2625,13.2638,13.265,0,0,0,0,0,13.2179,13.2192,13.2288,13.224,13.2251,13.2251,13.2281,13.2279,13.2296,13.2298,13.2297,13.2283,13.2303,13.2311,13.2375,13.2423,13.2331,13.2335,13.2545,13.255,13.2554,13.2631,0,0,0,0,0,0,13.2182,13.2189,13.229,13.2293,13.2212,13.2245,13.225,13.2277,13.2294,13.2294,13.2266,13.2261,13.2305,13.2311,13.2317,13.2422,13.2324,13.2329,13.2331,13.2549,13.2553,13.2556,0,0,0,0,0,0,13.2183,13.2192,13.2291,13.2257,13.2255,13.224,13.2244,13.2296,13.2294,13.2261,13.2257,13.2263,13.2295,13.2311,13.2316,13.2398,13.232,13.2324,13.2326,13.2328,13.2552,13.2555,0,0,0,0,0,0,13.2186,13.2194,13.2256,13.2255,13.2254,13.2284,13.2285,13.2344,13.2267,13.2261,13.2259,13.2256,13.2296,13.2301,13.2315,13.2395,13.2397,13.232,13.2323,13.2325,13.2326,0,0,0,0,0,0,0,13.2189,13.2139,13.2274,13.2253,13.2252,13.2319,13.2319,13.232,13.2266,13.2263,13.226,13.2257,13.2298,13.2302,13.2306,13.2393,0,0,13.232,13.2321,0,0,0,0,0,0,0,0,13.2135,13.2138,13.2274,13.2275,13.2275,13.2319,13.2319,13.232,13.2266,13.2263,13.2261,13.2258,13.2299,13.2302,13.2306,0,0,0,0,0,0,0,0,0,0,0,0,0,0,0,13.2274,13.2275,0,13.2319,13.2319,13.232,13.2265,13.2263,13.2261,13.2259,13.23,13.2302,13.2305,0,0,0,0,0,0,0,0,0,0,0,0,0,0,0,0,0,0,0,0,0,0,0,0,0,0,0,0,0,0,0,0,0,0,0,0,0,0,0,0,0,0,0,0,0,0,0,0,0,0,0,0,0,0,0,0,0,0,0,0,0,0,0,0,0,0,0,0,0]}]]]